Vorticity
nan nan nan nan nan nan nan nan nan nan nan nan nan nan nan nan nan nan nan nan nan nan nan nan nan nan nan nan nan nan nan nan nan nan nan nan nan nan nan nan nan nan nan
nan 9 10 8 7 7 6 9 9 6 6 6 7 10 10 7 8 8 8 8 9 7 7 7 5 5 5 5 5 5 5 5 4 4 5 7 6 5 5 5 5 5 nan
nan 9 10 9 7 7 7 7 7 7 7 8 8 8 10 9 6 6 7 8 10 9 8 8 7 5 6 6 6 5 6 6 5 5 6 4 5 6 6 6 5 6 nan
nan 7 8 7 8 8 9 8 6 7 8 8 9 8 7 9 9 6 6 9 8 10 11 8 7 8 7 6 6 7 5 5 6 7 6 7 8 6 6 6 8 8 nan
nan 5 7 6 8 10 10 6 9 11 7 10 11 9 7 8 9 7 8 7 8 8 11 13 9 8 7 7 8 9 8 8 6 7 8 8 8 8 7 7 8 8 nan
nan 5 7 8 8 9 7 8 8 10 10 10 10 8 6 8 10 9 9 8 7 7 8 9 8 11 11 10 11 10 10 10 11 12 12 12 13 13 12 12 12 12 nan
nan 6 6 6 8 10 9 7 7 6 8 8 7 8 10 9 10 12 9 9 8 9 8 7 8 9 12 10 7 10 13 13 11 11 12 12 13 14 14 13 12 13 nan
nan 7 7 8 7 7 8 7 7 7 10 8 8 8 8 7 10 11 10 10 8 8 8 8 8 8 8 9 10 8 11 12 9 6 7 8 8 9 8 7 8 7 nan
nan 8 7 8 9 8 7 7 8 7 7 9 10 7 8 10 8 9 9 10 8 9 10 9 8 8 8 8 9 8 8 7 7 7 6 6 6 6 6 6 7 7 nan
nan 8 8 7 7 9 9 7 7 7 8 8 6 9 10 10 6 7 9 10 10 8 9 8 9 8 7 10 10 8 8 6 6 6 6 6 6 6 5 5 5 5 nan
nan 8 8 8 7 9 10 8 7 8 7 9 8 7 8 9 9 9 9 6 9 10 9 9 9 8 7 8 8 12 9 6 6 6 6 5 5 5 5 4 4 5 nan
nan 9 9 8 9 8 8 9 9 8 6 7 9 9 9 8 8 7 10 11 8 9 10 8 9 9 8 11 12 11 7 6 6 6 5 5 5 4 5 5 5 5 nan
nan 10 9 7 9 8 9 9 9 8 7 6 8 7 8 8 9 9 8 11 10 9 9 10 10 8 9 9 12 14 8 6 6 6 6 6 5 5 4 5 6 5 nan
nan 9 8 9 7 7 8 7 7 9 9 8 7 7 7 7 9 9 8 7 9 11 11 10 10 9 10 12 14 9 7 10 6 6 6 6 6 6 5 5 6 7 nan
nan 13 8 9 8 7 6 8 9 8 8 9 8 8 6 7 8 10 9 8 8 8 9 11 10 11 10 11 13 10 11 11 7 6 6 6 7 7 6 7 7 7 nan
nan 14 13 9 8 8 7 6 7 10 8 8 10 9 6 8 8 10 9 8 8 9 10 10 9 11 11 12 13 8 11 14 11 6 7 7 7 8 8 8 9 9 nan
nan 11 13 11 10 8 7 7 6 8 8 9 9 10 8 7 7 8 10 8 9 8 8 7 13 10 11 10 10 10 11 10 15 15 7 9 8 8 8 9 10 10 nan
nan 8 12 10 9 9 8 8 8 7 8 8 8 8 8 8 8 7 9 9 9 8 9 11 8 10 10 11 10 8 8 9 12 15 13 10 9 9 8 8 9 10 nan
nan 7 9 12 9 9 9 8 8 7 6 7 9 7 8 8 6 6 7 8 8 10 9 11 9 8 9 9 9 10 10 8 11 14 16 14 10 7 8 7 8 10 nan
nan 7 7 10 12 9 8 9 7 7 6 6 9 9 8 6 7 5 7 7 8 8 8 9 10 8 9 10 9 9 8 11 9 12 14 15 14 10 10 7 9 9 nan
nan 8 8 6 9 9 9 10 9 8 8 7 6 9 10 9 8 5 4 8 7 6 6 7 7 9 6 12 11 8 9 10 10 9 10 10 11 12 12 14 12 14 nan
nan 8 8 8 4 8 13 10 6 7 9 8 7 8 10 13 12 10 5 5 5 5 3 5 7 8 8 4 11 11 7 8 11 11 12 10 11 9 11 16 14 15 nan
nan 9 8 9 9 8 13 12 6 4 9 9 8 7 7 11 12 10 12 10 8 7 6 4 7 7 10 9 6 10 8 7 10 9 11 12 10 10 12 13 17 14 nan
nan 9 11 9 8 11 14 12 11 5 6 8 10 9 8 7 9 12 10 10 9 8 9 7 8 8 9 14 13 13 9 5 7 11 8 11 10 9 11 16 16 12 nan
nan 11 10 11 9 10 13 11 9 10 9 10 9 10 10 10 14 11 7 9 10 8 11 11 10 10 8 6 8 10 12 9 7 9 7 12 12 12 9 10 15 15 nan
nan nan nan nan nan nan nan nan nan nan nan nan nan nan nan nan nan nan nan nan nan nan nan nan nan nan nan nan nan nan nan nan nan nan nan nan nan nan nan nan nan nan nan
CAPE
687 814 1139 517 627 565 499 918 670 807 551 443 74 33 82 38 127 641 1128 2233 2080 2144 1954 1422 1314 1158 1014 858 799 649 1062 1197 1281 1287 1315 1211 1262 1144 776 668 513 503 880
930 889 1380 1102 927 517 306 400 988 965 339 363 60 130 65 51 28 208 463 1098 2096 2146 1911 1904 1466 1520 1526 1665 1435 1352 959 503 889 1270 1096 1356 1572 1312 1152 1068 845 608 853
834 790 658 1153 912 793 530 1156 38 630 378 231 55 41 17 52 41 94 276 646 1343 2101 2195 2286 2340 2197 1739 1662 1754 1646 1575 1826 1347 1416 1687 1686 1783 1694 1605 1545 1428 1302 1337
1787 852 986 830 840 1197 1439 1161 991 193 394 170 71 71 46 26 30 81 116 265 678 904 1911 2185 2259 2028 1776 1620 1838 1770 2046 2142 2223 2290 2081 1864 1603 2027 1876 2039 1742 1879 1689
1734 1324 778 780 781 1371 1013 561 1019 322 260 260 42 53 44 37 47 108 24 157 263 476 613 1777 1983 1792 1456 1401 1529 1523 1835 2136 2353 2306 2169 2063 1912 1930 1870 1790 1667 1654 1677
1548 1554 1032 790 1265 911 901 406 285 84 92 8 18 58 23 10 28 83 177 257 146 117 205 661 1053 1045 1402 1627 1826 1613 1526 1651 2180 1913 1451 1724 1699 1759 1759 1547 1613 1518 1485
1588 1482 1400 860 1218 880 986 977 386 458 96 0 0 24 9 10 23 31 30 104 148 52 90 150 372 491 1003 1562 1123 912 1071 1274 1441 1438 1373 1492 1365 1337 1274 1145 1106 1083 1077
1623 1505 1425 902 1308 1081 1234 1089 800 510 360 0 58 33 8 4 4 10 11 61 43 3 27 162 215 293 580 466 685 1544 1804 1765 1278 1010 913 768 659 508 475 336 425 457 335
1878 1638 1388 1425 1333 584 957 1151 893 917 0 0 41 104 12 1 1 13 2 0 6 0 0 343 174 114 193 92 833 1186 1376 1113 344 0 0 0 8 14 1 0 0 0 0
1399 1761 1533 1312 1496 1275 999 998 1146 903 24 0 0 26 93 48 0 0 0 0 0 0 17 104 239 95 76 0 172 196 268 0 0 0 0 0 0 0 0 0 0 0 0
1196 2109 1615 1771 1537 1640 1064 1063 1748 796 618 145 0 0 0 0 0 0 1 1 0 0 0 0 18 90 0 0 0 0 1 0 35 79 17 0 0 0 0 0 0 0 0
1380 1892 1865 1816 1673 1712 1396 1420 1648 1196 945 1165 67 16 0 0 0 0 9 5 0 0 0 0 0 0 0 0 0 0 4 0 21 21 32 51 92 23 0 0 0 0 9
1518 1886 1935 1804 1889 1982 1977 1399 1851 1956 1378 1240 951 37 97 0 44 0 0 0 0 0 0 0 0 0 0 0 0 0 10 0 0 0 0 4 36 48 98 81 14 16 38
1479 1412 2179 1738 1820 1744 1788 1986 1944 2028 1751 1209 1553 606 37 142 16 0 0 0 0 0 0 0 1 0 0 0 0 0 0 0 0 0 0 0 0 0 1 22 77 108 49
938 1582 1818 2276 1813 1672 1633 1953 2234 1915 2016 1613 1061 1316 584 79 129 25 0 0 0 0 19 9 3 8 0 0 4 0 0 0 0 0 0 0 0 0 0 0 0 19 46
670 1498 1789 2030 1960 1871 1881 1998 2362 2323 1986 1877 1403 1209 1045 424 81 64 40 4 0 0 0 28 0 22 61 10 28 0 0 0 0 0 0 0 0 0 0 0 0 0 0
1544 1292 1985 1990 1950 2072 2269 2191 2038 2032 2376 2083 1603 1317 1024 667 108 64 80 56 32 0 0 0 22 62 70 64 17 18 26 5 0 0 0 0 0 0 0 0 0 0 0
1376 2290 2362 2105 2232 2044 1965 2499 2105 2202 1898 2171 1819 1128 1099 809 420 268 641 45 27 89 0 0 163 291 101 0 0 0 32 39 3 0 0 0 0 0 0 0 0 0 0
2483 1604 2625 2359 2292 2343 2310 2140 2347 2194 1894 2211 2018 1391 973 967 663 323 417 514 266 27 402 72 149 347 326 214 249 166 42 4 3 129 13 0 0 0 0 0 0 0 0
2107 2929 1882 2572 2400 2395 2291 2408 2355 2397 2268 1796 2204 1942 1549 1198 987 653 352 297 282 342 137 248 27 16 117 486 111 153 187 250 148 145 0 0 0 0 0 0 0 0 0
2504 2237 2630 2337 2679 2389 2462 2327 2448 2418 2419 2405 1831 2375 2114 1728 1276 844 724 371 210 313 255 51 77 143 60 374 527 247 137 157 189 98 55 0 0 0 0 0 0 0 0
2106 2395 2411 2449 2699 2803 2646 2131 2372 2478 2486 2570 2560 1928 2513 2077 1597 947 744 698 563 159 136 365 40 40 78 90 229 280 235 69 120 65 65 20 0 0 0 0 0 0 0
2924 2590 2428 2722 2624 2755 2617 1522 1608 2505 2495 2633 2664 2586 2087 2441 2040 1998 581 596 455 559 143 76 256 115 44 78 161 168 72 11 8 4 0 1 1 12 0 0 2 0 0
3055 3158 3066 2815 3012 2923 2672 1321 837 2349 2568 2540 2835 2791 2689 2534 2458 2345 2216 1162 957 667 399 154 41 30 130 303 314 328 150 94 117 46 2 26 10 13 0 0 0 0 0
3122 3172 3367 3307 3211 3206 2426 1459 312 2010 2607 2649 2689 2765 2896 2814 2649 1801 2434 2051 1449 1114 622 281 255 253 670 808 573 318 200 144 83 110 88 13 6 9 0 0 0 0 0
3237 3279 3277 3496 3388 3413 3155 1049 317 2308 2598 2645 2615 2562 2303 2582 2703 1311 2061 2478 1958 1511 1113 745 60 58 602 288 362 259 96 48 42 67 37 136 22 18 0 0 0 0 0